FW6327 Weather Reports


Display with metric or nautical units.
time (UTC)temp
F
wind
direction
speed
MPH
gust
MPH
rain 1hr
in
rain 24hr
in
rain mn
in
humidity
%
barometer
mb
20260506154505 71 161 12.0 25.0 0.00 0.01 0.00 57 1014.0
20260506153002 70 227 14.0 25.0 0.00 0.01 0.00 58 1014.0
20260506151559 71 224 13.0 26.0 0.00 0.01 0.00 59 1014.1
20260506150054 69 197 10.0 30.0 0.00 0.01 0.00 63 1014.2
20260506144600 69 155 15.0 26.0 0.00 0.01 0.00 64 1014.2
20260506143047 68 190 18.0 37.0 0.00 0.01 0.00 66 1014.2
20260506141544 68 143 16.0 29.0 0.00 0.01 0.00 65 1014.0
20260506140054 68 200 11.0 36.0 0.00 0.01 0.00 66 1013.9
20260506134538 67 197 15.0 26.0 0.00 0.01 0.00 66 1014.2
20260506133043 67 169 11.0 34.0 0.00 0.01 0.00 67 1014.1
20260506131532 66 209 16.0 26.0 0.00 0.01 0.00 67 1014.3
20260506130029 66 232 12.0 30.0 0.00 0.01 0.00 68 1014.1
20260506124523 66 219 13.0 27.0 0.00 0.01 0.00 69 1014.1
20260506123019 65 192 11.0 26.0 0.00 0.01 0.00 71 1014.2
20260506121615 65 218 12.0 24.0 0.00 0.01 0.00 72 1014.1
20260506120018 64 135 11.0 20.0 0.00 0.01 0.00 74 1013.9
20260506114508 64 190 12.0 21.0 0.00 0.01 0.00 75 1013.9
20260506113006 63 205 8.0 20.0 0.00 0.01 0.00 77 1014.0
20260506111607 62 220 10.0 16.0 0.00 0.01 0.00 79 1013.8
20260506110055 61 213 7.0 15.0 0.00 0.01 0.00 79 1014.0
20260506104557 60 199 8.0 18.0 0.00 0.01 0.00 80 1014.0
20260506103051 59 200 7.0 17.0 0.00 0.01 0.00 81 1013.8
20260506101548 58 202 8.0 14.0 0.00 0.01 0.00 82 1013.9
20260506100036 57 197 7.0 13.0 0.00 0.01 0.00 82 1013.8
20260506094534 56 175 4.0 14.0 0.00 0.01 0.00 83 1013.7
20260506093030 54 206 3.0 6.0 0.00 0.01 0.00 85 1013.6
20260506091528 54 196 3.0 6.0 0.00 0.01 0.00 84 1013.4
20260506090024 54 240 2.0 8.0 0.00 0.01 0.00 85 1013.2
20260506084532 54 215 3.0 9.0 0.00 0.01 0.00 85 1013.0
20260506083018 53 225 1.0 5.0 0.00 0.01 0.00 85 1012.8
20260506081518 54 207 2.0 8.0 0.00 0.01 0.00 85 1012.6
20260506073009 55 223 4.0 14.0 0.00 0.01 0.00 83 1012.7
20260506071504 54 192 1.0 3.0 0.00 0.01 0.00 83 1012.6
20260506061556 55 217 5.0 12.0 0.00 0.01 0.00 83 1012.3
20260506044536 56 217 6.0 11.0 0.00 0.01 0.00 79 1012.7
20260506043036 56 215 6.0 19.0 0.00 0.01 0.00 78 1012.8
20260506041528 57 179 7.0 17.0 0.00 0.01 0.00 77 1012.5
20260506040034 57 221 7.0 13.0 0.00 0.01 0.00 77 1012.4
20260506034521 57 213 6.0 13.0 0.00 0.01 0.00 77 1012.4
20260506033015 57 195 5.0 13.0 0.00 0.01 0.00 77 1012.5
20260506031510 57 183 7.0 13.0 0.00 0.01 0.00 76 1012.3
20260506030006 57 205 3.0 9.0 0.00 0.01 0.00 76 1012.3
20260506024505 57 210 4.0 12.0 0.00 0.02 0.01 75 1012.2
20260506023001 58 215 3.0 9.0 0.00 0.02 0.01 74 1012.1
20260506021613 58 171 4.0 14.0 0.00 0.02 0.01 74 1012.3
20260506020058 58 209 4.0 14.0 0.00 0.02 0.01 73 1012.5
20260506014557 59 207 4.0 10.0 0.00 0.02 0.01 73 1012.4
20260506013057 60 209 4.0 12.0 0.00 0.02 0.01 71 1012.4
20260506011549 60 173 5.0 18.0 0.00 0.02 0.01 70 1011.9
20260506010058 60 226 11.0 17.0 0.00 0.02 0.01 68 1011.6
20260506004549 61 219 8.0 17.0 0.00 0.02 0.01 66 1011.5
20260506003042 61 222 4.0 10.0 0.00 0.02 0.01 63 1011.4
20260506001638 62 234 5.0 17.0 0.00 0.02 0.01 60 1011.1
20260506000033 62 194 6.0 15.0 0.00 0.02 0.01 58 1010.8
20260505234546 63 215 6.0 14.0 0.00 0.02 0.01 55 1010.5
20260505233034 63 194 4.0 15.0 0.00 0.02 0.01 54 1010.2
20260505231522 64 216 7.0 16.0 0.00 0.02 0.01 50 1009.9
20260505230019 65 198 8.0 18.0 0.00 0.02 0.01 48 1009.6
20260505224518 65 219 9.0 17.0 0.00 0.02 0.01 46 1009.6
20260505223015 66 215 8.0 20.0 0.00 0.02 0.01 46 1009.5
20260505221512 66 236 8.0 25.0 0.00 0.02 0.01 45 1009.5
20260505220010 67 254 12.0 21.0 0.00 0.02 0.01 44 1009.5
20260505214625 67 262 13.0 29.0 0.00 0.02 0.01 44 1009.2
20260505213007 68 184 10.0 24.0 0.00 0.02 0.01 43 1009.1
20260505211502 68 169 14.0 24.0 0.00 0.02 0.01 43 1009.3
20260505210103 69 248 15.0 27.0 0.00 0.02 0.01 43 1009.4
20260505204605 70 200 15.0 30.0 0.00 0.02 0.01 42 1009.3
20260505203058 71 155 15.0 34.0 0.00 0.02 0.01 43 1009.2
20260505201554 71 192 15.0 31.0 0.00 0.02 0.01 42 1009.3
20260505194553 74 233 11.0 20.0 0.00 0.02 0.01 38 1008.9
20260505193049 74 205 13.0 31.0 0.00 0.02 0.01 37 1008.6
20260505191540 74 213 11.0 26.0 0.00 0.02 0.01 39 1008.4
20260505190039 74 217 14.0 26.0 0.00 0.02 0.01 39 1008.5
20260505184535 74 233 11.0 25.0 0.00 0.02 0.01 38 1008.5
20260505183036 75 226 11.0 22.0 0.00 0.02 0.01 34 1008.5
20260505181529 74 228 10.0 22.0 0.00 0.02 0.01 37 1008.6
20260505180051 74 205 12.0 25.0 0.01 0.02 0.01 38 1008.8
20260505174545 73 205 13.0 28.0 0.01 0.02 0.01 39 1008.9
20260505173027 74 216 12.0 28.0 0.01 0.02 0.01 40 1008.9
20260505171523 73 171 12.0 36.0 0.01 0.02 0.01 41 1008.8
20260505170013 73 180 11.0 27.0 0.00 0.01 0.00 43 1008.9
20260505164511 71 171 8.0 17.0 0.00 0.02 0.00 45 1009.0
20260505163006 70 219 11.0 18.0 0.00 0.02 0.00 48 1009.1
20260505161621 69 201 11.0 17.0 0.00 0.02 0.00 50 1009.0